Погода в Груздеве

Россия / Ивановская область     56°42′18″N   42°03′53″E
темп.,
°C
ветер,
м/с
пор.,
м/с
влажн.,
%
обл.,
%
осадки,
мм/ч
давл.,
гПа
погр.,
м
15 апреля, чт
чт1500:00+11ю2265100 0.0 101913
03:00+9ю2273100 0.0 101812
06:00+8ююв1176100 0.0 101810
09:00+13всв1159100 0.0 1018192
12:00+17св1146100 0.0 1018692
15:00+17ссв4454100 0.0 1018889
18:00+12св61080100 0.0 1020496
21:00+8св61384100 0.0 1022465
16 апреля, пт
пт1600:00+6св51386100 0.0 1022455
03:00+6св51286100 0.0 1023454
06:00+4всв51282100 0.0 1024451
09:00+8всв5971100 0.0 1025565
12:00+11всв586062 0.0 1025887
15:00+13всв575599 0.0 10251128
18:00+12всв59606 0.0 1025892
21:00+8всв5126728 0.0 1026445
17 апреля, сб
сб1700:00+6всв4126663 0.0 1027398
03:00+4всв412708 0.0 1027363
06:00+3всв413685 0.0 1028390
09:00+8всв510475 0.0 1029650
12:00+11всв68355 0.0 10281143
15:00+13всв57355 0.0 10281460
18:00+11св47460 0.0 1027507
21:00+6св39650 0.0 1028177
18 апреля, вс
вс1800:00+4св39730 0.0 1028168
03:00+3св38810 0.0 1029166
06:00+2св38805 0.0 1030181
09:00+8св46550 0.0 1030547
12:00+12св46435 0.0 10301372
15:00+13св56395 0.0 10301695
18:00+11св474853 0.0 1030593
21:00+7в5116937 0.0 1032494
19 апреля, пн
пн1900:00+4всв387797 0.0 1034259
03:00+2в278293 0.0 1035183
06:00+2в3772100 0.0 1037257
09:00+6вюв464246 0.0 1037843
12:00+8вюв453359 0.0 10361521
15:00+9вюв453199 0.0 10351647
18:00+8юв363962 0.0 1035632
21:00+3юв385717 0.0 1036175